Powrót do katalogu

MIDAS 5

STRONGBACK

AktywnyMilitariaPO
NORAD 271·PAYLOAD·🇺🇸 United States

Wystrzelony Apr 9, 1962 z Vandenberg Space Force Base

Loading…

Następne Przeloty (najbliższe 24 godziny)

TLE

ŚwieżeSource: Space-Track

Epoka: Sep 8, 2026, 05:01 UTC

1 00271U 62010A   26251.20951560  .00000011  00000-0  16395-2 0  9991
2 00271  86.6585 303.8071 0326917 287.7040  68.8433  9.41308646213489

Śledź MIDAS 5 w czasie rzeczywistym z AllMySat

Download on the App Store